Location: Leeds
(37.2390°N, 113.3580°W)
Time: 14:20:06
(UTC-06:00)

SL-08 RB Rocket - Visible Passes

Search period start: 26 May 2016 00:00
Search period end: 05 June 2016 00:00
Orbit: 647 x 686 km, 98.0° (Epoch: 26 May)

Date Brightness Start Highest point End Pass type
(mag) Time Alt. Az. Time Alt. Az. Time Alt. Az.
26 May 5.8 00:11:32 18° W 00:11:41 18° W 00:14:52 10° NW visible
26 May 3.6 23:05:28 62° SSE 23:06:13 84° ENE 23:10:46 10° N visible
27 May 5.5 21:59:24 14° E 22:01:19 17° ENE 22:04:14 10° NNE visible
27 May 4.5 23:37:33 41° WSW 23:38:00 42° W 23:42:19 10° NNW visible
28 May 4.5 22:31:29 29° ESE 22:32:49 35° ENE 22:36:56 10° N visible
29 May 5.7 00:09:38 19° W 00:09:55 19° W 00:13:10 10° NW visible
29 May 3.6 23:03:34 57° SSE 23:04:28 81° ENE 23:09:00 10° N visible
30 May 5.6 21:57:31 12° E 21:59:34 16° ENE 22:02:22 10° NNE visible
30 May 4.4 23:35:39 42° WSW 23:36:14 44° W 23:40:34 10° NNW visible
31 May 4.6 22:29:35 27° ESE 22:31:04 34° ENE 22:35:08 10° N visible
01 Jun 5.6 00:07:44 20° WSW 00:08:09 20° W 00:11:28 10° NW visible
01 Jun 3.6 23:01:41 53° SSE 23:02:42 77° ENE 23:07:13 10° N visible
02 Jun 5.6 21:55:37 11° E 21:57:49 16° ENE 22:00:29 10° NNE visible
02 Jun 4.3 23:33:46 42° SW 23:34:28 46° W 23:38:49 10° NNW visible
03 Jun 4.6 22:27:42 25° ESE 22:29:18 32° ENE 22:33:19 10° N visible
04 Jun 5.6 00:05:51 20° WSW 00:06:22 21° W 00:09:45 10° NW visible
04 Jun 3.6 22:59:48 49° SE 23:00:56 74° ENE 23:05:25 10° N visible
